Change the Weather History Date:

Friday, March 21, 2014

  Actual Average Record
Temperature  
Mean Temperature 40 °F 41 °F  
Max Temperature 51 °F 56 °F 84 °F (2011)
Min Temperature 29 °F 27 °F -1 °F (1913)
Degree Days  
Heating Degree Days 25    
Moisture  
Dew Point 18 °F    
Average Humidity 44    
Maximum Humidity 73    
Minimum Humidity 25    
Precipitation  
Precipitation 0.00 in 0.03 in 1.10 in (1952)
Month to date precipitation 0.07 0.57  
Year to date precipitation 0.77 1.37  
Sea Level Pressure  
Sea Level Pressure 30.01 in    
Wind  
Wind Speed 12 mph (NNE)    
Max Wind Speed 23 mph    
Max Gust Speed 32 mph    
Visibility 10 miles    
Events      
T = Trace of Precipitation, MM = Missing Value Source: NWS Daily Summary

Daily Weather History Graph

Daily Weather History Graph

Search for Another Location

Airport or City:

Trip Planner

Search our weather history database for the weather conditions in past years. The results will help you decide how hot, cold, wet, or windy it might be!

Date:

Astronomy

Mar. 21, 2014 Rise Set
Actual Time 6:50 AM MDT 7:02 PM MDT
Civil Twilight 6:24 AM MDT 7:28 PM MDT
Nautical Twilight 5:52 AM MDT 8:00 PM MDT
Astronomical Twilight 5:21 AM MDT 8:32 PM MDT
Moon No Moon Rise 9:46 AM MDT (3/21)
Length of Visible Light 13h 04m
Length of Day
12h 11m
Waning Gibbous, 75% of the Moon is Illuminated
Mar 21
Waning Gibbous
Mar 23
Last Quarter
Mar 30
New
Apr 7
First Quarter
Apr 15
Full

Hourly Weather History & Observations

Time (MDT) Temp. Windchill Dew Point Humidity Pressure Visibility Wind Dir Wind Speed Gust Speed Precip Events Conditions
12:53 AM 43.0 °F 41.3 °F 10.0 °F 26% 29.76 in 10.0 mi ESE 3.5 mph - N/A   Clear
1:53 AM 36.0 °F - 12.0 °F 37% 29.77 in 10.0 mi Calm Calm - N/A   Clear
2:53 AM 30.0 °F 22.4 °F 12.9 °F 49% 29.77 in 10.0 mi West 8.1 mph - N/A   Clear
3:29 AM 37.9 °F 27.6 °F 23.0 °F 55% 29.86 in 10.0 mi North 20.7 mph 29.9 mph N/A   Clear
3:53 AM 35.1 °F 24.5 °F 25.0 °F 67% 29.81 in 10.0 mi North 18.4 mph - N/A   Clear
4:53 AM 32.0 °F 22.1 °F 24.1 °F 73% 29.85 in 10.0 mi North 13.8 mph - N/A   Clear
5:53 AM 30.0 °F 20.0 °F 21.9 °F 72% 29.89 in 10.0 mi NNW 12.7 mph - N/A   Clear
6:53 AM 30.0 °F 19.1 °F 19.9 °F 66% 29.94 in 10.0 mi North 15.0 mph - N/A   Clear
7:53 AM 32.0 °F 22.1 °F 21.9 °F 66% 30.00 in 10.0 mi NNW 13.8 mph - N/A   Clear
8:53 AM 37.0 °F 26.2 °F 19.9 °F 50% 30.02 in 10.0 mi North 21.9 mph 28.8 mph N/A   Clear
9:53 AM 42.1 °F 32.6 °F 17.1 °F 37% 30.03 in 10.0 mi North 23.0 mph 29.9 mph N/A   Clear
10:53 AM 45.0 °F 36.4 °F 16.0 °F 31% 30.04 in 10.0 mi North 23.0 mph 31.1 mph N/A   Clear
11:53 AM 48.0 °F - 16.0 °F 28% 30.05 in 10.0 mi North 19.6 mph 31.1 mph N/A   Clear
12:53 PM 48.9 °F - 14.0 °F 25% 30.05 in 10.0 mi North 20.7 mph 32.2 mph N/A   Clear
1:53 PM 48.9 °F - 16.0 °F 27% 30.06 in 10.0 mi North 19.6 mph 26.5 mph N/A   Clear
2:53 PM 50.0 °F - 16.0 °F 26% 30.07 in 10.0 mi North 20.7 mph 27.6 mph N/A   Clear
3:53 PM 48.9 °F - 16.0 °F 27% 30.06 in 10.0 mi North 13.8 mph 24.2 mph N/A   Clear
4:53 PM 48.9 °F - 15.1 °F 26% 30.07 in 10.0 mi North 20.7 mph - N/A   Clear
5:53 PM 46.0 °F 39.0 °F 15.1 °F 29% 30.10 in 10.0 mi NNE 17.3 mph - N/A   Clear
6:53 PM 42.1 °F 34.9 °F 16.0 °F 35% 30.14 in 10.0 mi NE 13.8 mph - N/A   Clear
7:53 PM 39.0 °F 33.4 °F 17.1 °F 41% 30.16 in 10.0 mi NE 8.1 mph - N/A   Clear
8:53 PM 37.0 °F 33.3 °F 17.1 °F 44% 30.19 in 10.0 mi ENE 4.6 mph - N/A   Clear
9:53 PM 37.0 °F 32.4 °F 18.0 °F 46% 30.18 in 10.0 mi NE 5.8 mph - N/A   Overcast
10:53 PM 34.0 °F 23.8 °F 19.9 °F 56% 30.20 in 10.0 mi ENE 16.1 mph - N/A   Overcast
11:53 PM 30.9 °F 21.2 °F 21.9 °F 69% 30.20 in 10.0 mi East 12.7 mph - N/A   Overcast